This is the latest recevied weather packets stored in our database for station/object KJ6BBX. If no packets are shown the sender has not sent any weather packets the latest 10 day(s).
| Time | Temp. | Humidity | Pressure | Rain* | Wind** | Luminosity | Snow |
|---|---|---|---|---|---|---|---|
| 1777944014 | 17.22° C | 69% | 1006.4 hPa | 0 mm | - | 58 W/m² | - |
| 1777943114 | 17.22° C | 68% | 1006.5 hPa | 0 mm | - | 87 W/m² | - |
| 1777942214 | 17.78° C | 68% | 1006.6 hPa | 0 mm | - | 134 W/m² | - |
| 1777941315 | 17.78° C | 66% | 1006.5 hPa | 0 mm | - | 129 W/m² | - |
| 1777940413 | 18.33° C | 64% | 1006.3 hPa | 0 mm | - | 124 W/m² | - |
| 1777939514 | 18.89° C | 64% | 1006.5 hPa | 0 mm | - | 238 W/m² | - |
| 1777938613 | 18.89° C | 64% | 1006.4 hPa | 0 mm | - | 143 W/m² | - |
| 1777937714 | 18.89° C | 63% | 1006.6 hPa | 0 mm | - | 223 W/m² | - |
| 1777936814 | 18.89° C | 62% | 1006.2 hPa | 0 mm | - | 169 W/m² | - |
| 1777935914 | 20° C | 61% | 1006.6 hPa | 0 mm | - | 310 W/m² | - |
| 1777935015 | 20° C | 61% | 1006.5 hPa | 0 mm | - | 563 W/m² | - |
| 1777934114 | 20° C | 60% | 1006.8 hPa | 0 mm | - | 348 W/m² | - |
| 1777933214 | 20.56° C | 57% | 1007 hPa | 0 mm | - | 390 W/m² | - |
| 1777932314 | 20.56° C | 57% | 1006.8 hPa | 0 mm | - | 480 W/m² | - |
| 1777931414 | 21.11° C | 56% | 1007.3 hPa | 0 mm | - | 373 W/m² | - |
| 1777930515 | 20° C | 54% | 1007.1 hPa | 0 mm | - | 437 W/m² | - |
| 1777929615 | 21.11° C | 53% | 1007.4 hPa | 0 mm | - | 350 W/m² | - |
| 1777928714 | 21.67° C | 52% | 1007 hPa | 0 mm | - | 561 W/m² | - |
| 1777927814 | 21.11° C | 52% | 1007.3 hPa | 0 mm | - | 252 W/m² | - |
| 1777926914 | 21.67° C | 50% | 1007.2 hPa | 0 mm | - | 326 W/m² | - |
| 1777926015 | 21.11° C | 52% | 1007.3 hPa | 0 mm | - | 679 W/m² | - |
| 1777925114 | 21.11° C | 52% | 1007.3 hPa | 0 mm | - | 313 W/m² | - |
| 1777924214 | 20.56° C | 55% | 1007.4 hPa | 0 mm | - | 325 W/m² | - |
| 1777923314 | 20° C | 56% | 1007.4 hPa | 0 mm | - | 419 W/m² | - |
| 1777922414 | 18.89° C | 57% | 1007.8 hPa | 0 mm | - | 259 W/m² | - |
* Rain since midnight (hover to see other rain measurements)
** Current wind speed in m/s (hover to see current wind gust speed)